User: anonymous   Login
Location: Allison's Woods
(35.8809°N, 80.8140°W)
Time: 07:06:10
(UTC-04:00)
Language:

Iridium 39 - Orbit

View from above orbital plane
View from above orbital plane
View from above satellite
View from above satellite

Ground track
Ground track

The orbit data is extracted from the following two-line orbital elements,

1 25042U 97069D   17291.66288791  .00000158  00000-0  38484-4 0  9996
2 25042  86.3912 326.5408 0016778 261.0171  98.9133 14.46188808 44569
Epoch (UTC): 18 October 2017 15:54:33
Eccentricity: 0.0016778
inclination: 86.3912°
perigee height: 726 km
apogee height: 750 km
right ascension of ascending node: 326.5408°
argument of perigee: 261.0171°
revolutions per day: 14.46188808
mean anomaly at epoch: 98.9133°
orbit number at epoch: 4456

The dashed part of the orbit path shows where the satellite is in the earth's shadow,  

DLR